Location: Unspecified
(0.0000°N, 0.0000°E)
Time: 13:51:42
(UTC+00:00)

LightSail 2 - Pass Details

Date: 30 March 2020
Orbit: 693 x 726 km, 24.0° (Epoch: 02 April)

Event Time Altitude Azimuth Distance (km) Brightness Sun altitude
Rises 18:43:20 0° 250° (WSW) 3,117 9.8 -9.7°
Reaches altitude 10° 18:47:52 10° 214° (SW) 2,191 8.1 -10.9°
Maximum altitude 18:49:13 11° 199° (SSW) 2,125 7.8 -11.2°
Drops below altitude 10° 18:50:34 10° 183° (S) 2,186 7.7 -11.5°
Enters shadow 18:54:45 - 149° (SSE) 3,009 8.0 -12.6°
